| time (UTC) | temp C | wind direction | speed KPH | gust KPH | rain 1hr cm | rain 24hr cm | rain mn cm | humidity % | barometer mb |
| 20260509014536 | 22 | 189 | 0.0 | 0.0 | 0.00 | 0.00 | 0.00 | 26 | 1006.8 |
| 20260509013038 | 22 | 189 | 0.0 | 0.0 | 0.00 | 0.00 | 0.00 | 27 | 1006.8 |
| 20260509011533 | 23 | 189 | 0.0 | 0.0 | 0.00 | 0.00 | 0.00 | 25 | 1007.0 |
| 20260509010035 | 23 | 169 | 0.0 | 0.0 | 0.00 | 0.00 | 0.00 | 25 | 1007.1 |
| 20260509004530 | 23 | 159 | 0.0 | 0.0 | 0.00 | 0.00 | 0.00 | 24 | 1007.2 |
| 20260509003029 | 24 | 212 | 0.0 | 0.0 | 0.00 | 0.00 | 0.00 | 23 | 1007.4 |
| 20260509001528 | 24 | 211 | 0.0 | 0.0 | 0.00 | 0.00 | 0.00 | 24 | 1007.5 |
| 20260509000038 | 24 | 178 | 1.6 | 0.0 | 0.00 | 0.00 | 0.00 | 23 | 1007.6 |
| 20260508234524 | 23 | 123 | 0.0 | 0.0 | 0.00 | 0.00 | 0.00 | 22 | 1007.9 |
| 20260508233023 | 23 | 225 | 1.6 | 0.0 | 0.00 | 0.00 | 0.00 | 22 | 1008.0 |
| 20260508231522 | 23 | 282 | 1.6 | 0.0 | 0.00 | 0.00 | 0.00 | 22 | 1008.0 |
| 20260508230021 | 24 | 183 | 0.0 | 0.0 | 0.00 | 0.00 | 0.00 | 24 | 1008.0 |
| 20260508224539 | 24 | 205 | 0.0 | 0.0 | 0.00 | 0.00 | 0.00 | 23 | 1008.3 |
| 20260508223016 | 24 | 310 | 0.0 | 0.0 | 0.00 | 0.00 | 0.00 | 23 | 1008.4 |
| 20260508221516 | 23 | 254 | 3.2 | 0.0 | 0.00 | 0.00 | 0.00 | 22 | 1008.7 |
| 20260508220021 | 23 | 224 | 0.0 | 0.0 | 0.00 | 0.00 | 0.00 | 24 | 1009.0 |
| 20260508214517 | 23 | 252 | 4.8 | 0.0 | 0.00 | 0.00 | 0.00 | 24 | 1009.1 |
| 20260508213020 | 23 | 286 | 1.6 | 0.0 | 0.00 | 0.00 | 0.00 | 25 | 1009.3 |
| 20260508211516 | 23 | 292 | 1.6 | 0.0 | 0.00 | 0.00 | 0.00 | 24 | 1009.4 |
| 20260508210013 | 23 | 240 | 3.2 | 0.0 | 0.00 | 0.00 | 0.00 | 27 | 1009.6 |
| 20260508204509 | 23 | 292 | 0.0 | 0.0 | 0.00 | 0.00 | 0.00 | 25 | 1009.8 |
| 20260508203010 | 22 | 295 | 1.6 | 0.0 | 0.00 | 0.00 | 0.00 | 29 | 1009.9 |
| 20260508201507 | 22 | 259 | 0.0 | 0.0 | 0.00 | 0.00 | 0.00 | 27 | 1010.0 |
| 20260508200015 | 22 | 263 | 0.0 | 0.0 | 0.00 | 0.00 | 0.00 | 28 | 1010.1 |
| 20260508194503 | 21 | 210 | 1.6 | 0.0 | 0.00 | 0.00 | 0.00 | 30 | 1010.1 |
| 20260508193106 | 21 | 243 | 3.2 | 0.0 | 0.00 | 0.00 | 0.00 | 31 | 1010.3 |
| 20260508191557 | 21 | 300 | 3.2 | 0.0 | 0.00 | 0.00 | 0.00 | 36 | 1010.4 |
| 20260508190056 | 21 | 261 | 3.2 | 0.0 | 0.00 | 0.00 | 0.00 | 36 | 1010.6 |
| 20260508184556 | 20 | 257 | 3.2 | 0.0 | 0.00 | 0.00 | 0.00 | 38 | 1010.7 |
| 20260508183118 | 21 | 244 | 4.8 | 0.0 | 0.00 | 0.00 | 0.00 | 36 | 1010.7 |
| 20260508181610 | 20 | 206 | 1.6 | 0.0 | 0.00 | 0.00 | 0.00 | 36 | 1011.0 |
| 20260508180053 | 20 | 203 | 1.6 | 0.0 | 0.00 | 0.00 | 0.00 | 33 | 1011.1 |
| 20260508174550 | 20 | 196 | 1.6 | 0.0 | 0.00 | 0.00 | 0.00 | 34 | 1011.2 |
| 20260508173046 | 20 | 234 | 1.6 | 0.0 | 0.00 | 0.00 | 0.00 | 41 | 1011.2 |
| 20260508171550 | 19 | 243 | 3.2 | 0.0 | 0.00 | 0.00 | 0.00 | 43 | 1011.3 |
| 20260508170044 | 19 | 231 | 1.6 | 0.0 | 0.00 | 0.00 | 0.00 | 43 | 1011.3 |
| 20260508164540 | 18 | 234 | 3.2 | 0.0 | 0.00 | 0.00 | 0.00 | 47 | 1011.3 |
| 20260508163045 | 18 | 241 | 1.6 | 0.0 | 0.00 | 0.00 | 0.00 | 46 | 1011.2 |
| 20260508161540 | 18 | 188 | 0.0 | 0.0 | 0.00 | 0.00 | 0.00 | 48 | 1011.2 |
| 20260508160040 | 18 | 200 | 1.6 | 0.0 | 0.00 | 0.00 | 0.00 | 51 | 1011.1 |
| 20260508154536 | 18 | 284 | 0.0 | 0.0 | 0.00 | 0.00 | 0.00 | 46 | 1011.1 |
| 20260508153032 | 17 | 148 | 0.0 | 0.0 | 0.00 | 0.00 | 0.00 | 48 | 1011.1 |
| 20260508151528 | 17 | 148 | 0.0 | 0.0 | 0.00 | 0.00 | 0.00 | 52 | 1011.2 |
| 20260508150029 | 15 | 148 | 0.0 | 0.0 | 0.00 | 0.00 | 0.00 | 52 | 1011.1 |
| 20260508144535 | 15 | 242 | 0.0 | 0.0 | 0.00 | 0.00 | 0.00 | 53 | 1011.1 |
| 20260508143026 | 13 | 242 | 0.0 | 0.0 | 0.00 | 0.00 | 0.00 | 56 | 1011.1 |
| 20260508141520 | 12 | 242 | 0.0 | 0.0 | 0.00 | 0.00 | 0.00 | 61 | 1011.0 |
| 20260508140008 | 11 | 242 | 0.0 | 0.0 | 0.00 | 0.00 | 0.00 | 64 | 1010.9 |
| 20260508134507 | 9 | 242 | 0.0 | 0.0 | 0.00 | 0.00 | 0.00 | 69 | 1010.8 |
| 20260508133006 | 8 | 242 | 0.0 | 0.0 | 0.00 | 0.00 | 0.00 | 71 | 1010.6 |
| 20260508131504 | 7 | 242 | 0.0 | 0.0 | 0.00 | 0.00 | 0.00 | 73 | 1010.5 |
| 20260508130002 | 7 | 35 | 0.0 | 0.0 | 0.00 | 0.00 | 0.00 | 73 | 1010.2 |
| 20260508124603 | 7 | 35 | 0.0 | 0.0 | 0.00 | 0.00 | 0.00 | 72 | 1010.1 |
| 20260508123058 | 7 | 35 | 0.0 | 0.0 | 0.00 | 0.00 | 0.00 | 71 | 1009.8 |
| 20260508121555 | 7 | 35 | 0.0 | 0.0 | 0.00 | 0.00 | 0.00 | 69 | 1009.8 |
| 20260508120053 | 7 | 35 | 0.0 | 0.0 | 0.00 | 0.00 | 0.00 | 68 | 1009.6 |
| 20260508114553 | 7 | 35 | 0.0 | 0.0 | 0.00 | 0.00 | 0.00 | 69 | 1009.4 |
| 20260508113121 | 7 | 35 | 0.0 | 0.0 | 0.00 | 0.00 | 0.00 | 71 | 1009.4 |
| 20260508111549 | 7 | 35 | 0.0 | 0.0 | 0.00 | 0.00 | 0.00 | 71 | 1009.3 |
| 20260508110047 | 7 | 35 | 0.0 | 0.0 | 0.00 | 0.00 | 0.00 | 71 | 1009.3 |
| 20260508104554 | 7 | 35 | 0.0 | 0.0 | 0.00 | 0.00 | 0.00 | 70 | 1009.2 |
| 20260508103045 | 8 | 35 | 0.0 | 0.0 | 0.00 | 0.00 | 0.00 | 70 | 1009.1 |
| 20260508101548 | 7 | 35 | 0.0 | 0.0 | 0.00 | 0.00 | 0.00 | 72 | 1008.9 |
| 20260508100043 | 7 | 35 | 0.0 | 0.0 | 0.00 | 0.00 | 0.00 | 72 | 1008.9 |
| 20260508094543 | 7 | 35 | 0.0 | 0.0 | 0.00 | 0.00 | 0.00 | 76 | 1009.0 |
| 20260508093042 | 7 | 35 | 0.0 | 0.0 | 0.00 | 0.00 | 0.00 | 72 | 1008.9 |
| 20260508091545 | 8 | 35 | 0.0 | 0.0 | 0.00 | 0.00 | 0.00 | 72 | 1009.0 |
| 20260508090045 | 8 | 35 | 0.0 | 0.0 | 0.00 | 0.00 | 0.00 | 71 | 1008.9 |
| 20260508084536 | 8 | 35 | 0.0 | 0.0 | 0.00 | 0.00 | 0.00 | 70 | 1009.1 |
| 20260508083038 | 8 | 35 | 0.0 | 0.0 | 0.00 | 0.00 | 0.00 | 70 | 1008.9 |
| 20260508081538 | 8 | 35 | 0.0 | 0.0 | 0.00 | 0.00 | 0.00 | 69 | 1009.0 |
| 20260508080031 | 9 | 35 | 0.0 | 0.0 | 0.00 | 0.00 | 0.00 | 68 | 1009.0 |
| 20260508074529 | 9 | 35 | 0.0 | 0.0 | 0.00 | 0.00 | 0.00 | 67 | 1008.9 |
| 20260508073026 | 10 | 35 | 0.0 | 0.0 | 0.00 | 0.00 | 0.00 | 66 | 1008.8 |
| 20260508071524 | 10 | 35 | 0.0 | 0.0 | 0.00 | 0.00 | 0.00 | 65 | 1008.8 |
| 20260508070023 | 10 | 35 | 0.0 | 0.0 | 0.00 | 0.00 | 0.00 | 64 | 1008.7 |
| 20260508064545 | 10 | 35 | 0.0 | 0.0 | 0.00 | 0.00 | 0.00 | 62 | 1008.8 |
| 20260508063017 | 11 | 35 | 0.0 | 0.0 | 0.00 | 0.00 | 0.00 | 61 | 1008.6 |
| 20260508061514 | 11 | 35 | 0.0 | 0.0 | 0.00 | 0.00 | 0.00 | 60 | 1008.6 |
| 20260508060011 | 12 | 35 | 0.0 | 0.0 | 0.00 | 0.00 | 0.00 | 59 | 1008.5 |
| 20260508054514 | 12 | 35 | 0.0 | 0.0 | 0.00 | 0.00 | 0.00 | 57 | 1008.5 |
| 20260508053009 | 13 | 35 | 0.0 | 0.0 | 0.00 | 0.00 | 0.00 | 54 | 1008.5 |
| 20260508051516 | 14 | 35 | 0.0 | 0.0 | 0.00 | 0.00 | 0.00 | 51 | 1008.4 |
| 20260508050016 | 15 | 35 | 0.0 | 0.0 | 0.00 | 0.00 | 0.00 | 49 | 1008.3 |
| 20260508044508 | 15 | 35 | 0.0 | 0.0 | 0.00 | 0.00 | 0.00 | 49 | 1008.3 |
| 20260508043010 | 15 | 35 | 0.0 | 0.0 | 0.00 | 0.00 | 0.00 | 50 | 1008.2 |
| 20260508041507 | 14 | 253 | 0.0 | 0.0 | 0.00 | 0.00 | 0.00 | 48 | 1008.0 |
| 20260508040007 | 15 | 253 | 0.0 | 0.0 | 0.00 | 0.00 | 0.00 | 48 | 1008.0 |
| 20260508034519 | 15 | 253 | 0.0 | 0.0 | 0.00 | 0.00 | 0.00 | 46 | 1007.9 |
| 20260508033005 | 16 | 253 | 0.0 | 0.0 | 0.00 | 0.00 | 0.00 | 43 | 1007.7 |
| 20260508031504 | 17 | 253 | 0.0 | 0.0 | 0.00 | 0.00 | 0.00 | 41 | 1007.6 |
| 20260508030005 | 18 | 253 | 0.0 | 0.0 | 0.00 | 0.00 | 0.00 | 38 | 1007.5 |
| 20260508024505 | 19 | 253 | 0.0 | 0.0 | 0.00 | 0.00 | 0.00 | 36 | 1007.4 |
| 20260508023002 | 20 | 253 | 0.0 | 0.0 | 0.00 | 0.00 | 0.00 | 34 | 1007.4 |
| 20260508021502 | 21 | 253 | 0.0 | 0.0 | 0.00 | 0.00 | 0.00 | 32 | 1007.4 |
| 20260508020002 | 22 | 253 | 0.0 | 0.0 | 0.00 | 0.00 | 0.00 | 31 | 1007.5 |